METEOR-M2 2

Last updated on Mon Feb 10 2025 00:02:21 GMT+0000 (Coordinated Universal Time)

1 44387U 19038A 25040.57169253 .00000262 00000+0 13372-3 0 9994 2 44387 98.8605 17.1642 0001696 38.9344 321.1956 14.24136096291171
UTC large
Height (km)
Speed (km/s)
/
Latitude / Longitude
Inclination (degrees)
Orbital Period (minutes)
Azimuth
Elevation
Range (km)
Doppler Factor

Next 0 passes for location: London (51.5072 / 0.1276)

Sorry there are no passes over London.